R/V Knorr Calliope CSV data file  (Time stamps are GMT)
Date, Time_GMT, Depth12, Depth35, Air_Temp, WXT5_Ta, WXT5_Pa, dec_lat, dec_lon, EDO_knt, GPS_COG, GPS_SOG, Gyro, IMET_BPR, IMET_SWR, WXT5_Ri, WXT5_Rc, HRH, WXT5_Ua, WXT5_Dm, WXT5_Sm, SBE45C, SBE45S, SBE45T, Salinity, SSCND, Fluorometer, SSTMP, SSV, Wnd_Dir, TWD_5, Wnd_Spd, TWS_5, HdChkSum=52
2008/04/09, 00:00:32, 421.20, 0.00, -2.59, -1.90, 1012.7, 69.9246800, 30.3166270, , 213.80, 0.93, 101.10, 1013.55, 0.10, 0.0, 27.95, 70.00, 74.9, 341, 11.0, 32.34370, 34.17970, 4.5437, 34.1797, 32.3437, 94.30, 3.1277, 1461.89, 88.80, 78.8, 9.15, 11.3, 52
2008/04/09, 00:01:33, 438.80, 0.00, -2.56, -1.90, 1012.6, 69.9246000, 30.3166530, , 79.60, 0.16, 101.30, 1013.31, -0.20, 0.0, 27.95, 69.92, 74.7, 349, 10.0, 32.35150, 34.18300, 4.5493, 34.1830, 32.3515, 92.40, 3.1093, 1461.81, 94.30, 87.2, 9.43, 9.8, 52
2008/04/09, 00:02:33, 420.70, 0.00, -2.53, -1.90, 1012.5, 69.9245530, 30.3166530, , 109.80, 0.18, 101.70, 1013.35, -0.20, 0.0, 27.95, 69.10, 73.2, 350, 10.8, 32.37270, 34.18720, 4.5692, 34.1872, 32.3727, 89.40, 3.0916, 1461.74, 108.70, 89.0, 9.26, 10.7, 52
2008/04/09, 00:03:33, 440.80, 0.00, -2.50, -2.00, 1012.6, 69.9245300, 30.3165930, , 339.40, 0.23, 100.70, 1013.55, 0.00, 0.0, 27.95, 69.08, 74.6, 352, 10.3, 32.38700, 34.18710, 4.5854, 34.1871, 32.3870, 89.40, 3.0766, 1461.68, 106.70, 89.5, 9.04, 10.2, 52
2008/04/09, 00:04:33, 421.00, 0.00, -2.56, -1.90, 1012.6, 69.9245150, 30.3166170, , 202.30, 0.25, 101.60, 1013.39, 0.20, 0.0, 27.95, 69.74, 74.4, 347, 9.1, 32.38860, 34.18530, 4.5891, 34.1853, 32.3886, 90.90, 3.0680, 1461.64, 113.00, 86.7, 8.99, 9.1, 52
2008/04/09, 00:05:33, 421.10, 0.00, -2.42, -1.80, 1012.5, 69.9245300, 30.3165520, , 98.40, 0.35, 100.70, 1013.37, 0.40, 0.0, 27.95, 70.61, 75.7, 352, 11.8, 32.38350, 34.18410, 4.5844, 34.1841, 32.3835, 91.80, 3.0637, 1461.62, 109.60, 89.8, 8.61, 11.9, 52
2008/04/09, 00:06:33, 420.80, 0.00, -2.42, -1.80, 1012.6, 69.9245380, 30.3166400, , 98.30, 0.70, 101.70, 1013.39, 0.20, 0.0, 27.95, 69.87, 73.8, 347, 9.4, 32.36980, 34.18120, 4.5717, 34.1812, 32.3698, 94.30, 3.0626, 1461.61, 116.50, 85.7, 9.26, 9.1, 52
2008/04/09, 00:07:33, 440.10, 0.00, -2.53, -1.90, 1012.5, 69.9245430, 30.3166020, , 223.40, 0.32, 101.50, 1013.46, 0.00, 0.0, 27.95, 69.44, 74.0, 351, 10.6, 32.35920, 34.17690, 4.5638, 34.1769, 32.3592, 97.00, 3.0595, 1461.60, 110.80, 90.0, 8.90, 10.9, 52
2008/04/09, 00:08:33, 421.30, 0.00, -2.56, -1.90, 1012.6, 69.9245200, 30.3165950, , 186.20, 0.14, 100.80, 1013.46, 0.00, 0.0, 27.95, 69.38, 73.7, 344, 10.6, 32.32240, 34.17030, 4.5287, 34.1703, 32.3224, 102.50, 3.0545, 1461.56, 109.10, 82.3, 9.30, 10.7, 52
2008/04/09, 00:09:32, 421.10, 0.00, -2.50, -1.90, 1012.6, 69.9245130, 30.3165900, , 32.10, 0.12, 100.80, 1013.47, 0.30, 0.0, 27.95, 70.43, 75.8, 354, 10.5, 32.29780, 34.16610, 4.5048, 34.1661, 32.2978, 106.80, 3.0493, 1461.54, 105.80, 91.9, 8.59, 10.4, 52
2008/04/09, 00:10:32, 439.90, 0.00, -2.47, -1.80, 1012.5, 69.9244920, 30.3165820, , 154.90, 0.41, 100.80, 1013.45, 0.20, 0.0, 27.95, 71.05, 76.0, 353, 11.6, 32.27800, 34.16510, 4.4834, 34.1651, 32.2780, 106.40, 3.0440, 1461.51, 109.60, 90.9, 8.56, 11.6, 52
2008/04/09, 00:11:33, 428.60, 0.00, -2.44, -1.80, 1012.6, 69.9244870, 30.3165900, , 185.70, 0.19, 101.00, 1013.52, 0.10, 0.0, 27.95, 70.72, 74.9, 340, 9.6, 32.27160, 34.16780, 4.4735, 34.1678, 32.2716, 104.90, 3.0325, 1461.46, 109.70, 77.6, 9.10, 9.5, 52
2008/04/09, 00:12:33, 440.50, 0.00, -2.53, -1.80, 1012.4, 69.9245080, 30.3165630, , 100.00, 0.71, 101.60, 1013.35, -0.10, 0.0, 27.95, 70.79, 74.9, 352, 10.6, 32.28130, 34.17020, 4.4822, 34.1702, 32.2813, 103.40, 3.0178, 1461.40, 108.50, 92.1, 8.49, 10.7, 52
2008/04/09, 00:13:33, 429.70, 0.00, -2.33, -1.80, 1012.5, 69.9245280, 30.3165750, , 335.90, 0.25, 101.20, 1013.44, 0.00, 0.0, 27.95, 70.87, 75.4, 349, 10.0, 32.29100, 34.17150, 4.4919, 34.1715, 32.2910, 101.00, 3.0018, 1461.34, 116.90, 88.7, 10.18, 10.3, 52
2008/04/09, 00:14:33, 439.40, 0.00, -2.56, -1.90, 1012.6, 69.9245380, 30.3166000, , 177.10, 0.15, 102.10, 1013.50, -0.10, 0.0, 27.95, 70.54, 74.7, 351, 11.4, 32.29200, 34.16970, 4.4948, 34.1697, 32.2920, 102.80, 2.9872, 1461.28, 116.60, 90.6, 9.80, 11.7, 52
2008/04/09, 00:15:33, 421.80, 0.00, -2.61, -1.90, 1012.6, 69.9245430, 30.3166070, , 25.70, 0.27, 101.20, 1013.43, -0.30, 0.0, 27.95, 70.48, 75.3, 351, 11.3, 32.28160, 34.16670, 4.4859, 34.1667, 32.2816, 105.90, 2.9746, 1461.22, 110.10, 89.3, 8.44, 11.2, 52
2008/04/09, 00:16:33, 421.50, 0.00, -2.67, -2.00, 1012.7, 69.9245620, 30.3166500, , 352.40, 0.27, 101.60, 1013.59, -0.30, 0.0, 27.95, 70.15, 74.2, 347, 10.0, 32.28010, 34.16630, 4.4846, 34.1663, 32.2801, 106.20, 2.9649, 1461.17, 112.80, 86.2, 9.43, 10.0, 52
2008/04/09, 00:17:33, 442.10, 0.00, -2.61, -1.90, 1012.5, 69.9245780, 30.3166130, , 52.70, 0.16, 101.40, 1013.35, -0.40, 0.0, 27.95, 70.79, 75.7, 357, 11.1, 32.26130, 34.16610, 4.4635, 34.1661, 32.2613, 106.20, 2.9592, 1461.15, 110.90, 95.7, 8.02, 11.0, 52
2008/04/09, 00:18:33, 429.10, 0.00, -2.47, -1.90, 1012.7, 69.9246050, 30.3166380, , 183.10, 0.19, 101.50, 1013.40, -0.10, 0.0, 27.95, 70.82, 74.9, 344, 9.0, 32.24310, 34.16170, 4.4472, 34.1617, 32.2431, 112.80, 2.9552, 1461.13, 114.40, 83.8, 9.35, 9.1, 52
2008/04/09, 00:19:33, 429.10, 0.00, -2.47, -1.80, 1012.6, 69.9246200, 30.3166600, , 82.10, 0.27, 101.00, 1013.48, -0.10, 0.0, 27.95, 71.38, 74.9, 347, 10.8, 32.21330, 34.15400, 4.4207, 34.1540, 32.2133, 119.20, 2.9505, 1461.10, 113.10, 85.2, 8.15, 10.7, 52
2008/04/09, 00:20:33, 439.00, 0.00, -2.56, -1.90, 1012.6, 69.9246470, 30.3166400, , 316.00, 0.24, 100.30, 1013.41, -0.40, 0.0, 27.95, 69.82, 74.7, 356, 11.7, 32.18860, 34.14960, 4.3971, 34.1496, 32.1886, 120.40, 2.9457, 1461.07, 108.00, 94.1, 8.45, 11.8, 52
2008/04/09, 00:21:33, 420.90, 0.00, -2.53, -1.90, 1012.5, 69.9246970, 30.3166950, , 37.60, 0.20, 101.60, 1013.28, -0.10, 0.0, 27.95, 69.56, 74.3, 357, 11.6, 32.17560, 34.14820, 4.3835, 34.1482, 32.1756, 122.80, 2.9417, 1461.05, 115.00, 97.4, 9.08, 11.6, 52
2008/04/09, 00:22:32, 421.30, 0.00, -2.44, -1.90, 1012.5, 69.9247300, 30.3166950, , 84.70, 0.14, 101.40, 1013.36, -0.10, 0.0, 27.95, 69.69, 74.1, 351, 9.9, 32.16760, 34.14720, 4.3755, 34.1482, 32.1711, 124.60, 2.9390, 1461.04, 119.10, 90.9, 9.54, 9.8, 52
2008/04/09, 00:23:33, 421.10, 0.00, -2.44, -1.90, 1012.5, 69.9247580, 30.3167520, , 306.40, 0.48, 100.80, 1013.36, 0.20, 0.0, 27.95, 69.97, 75.2, 356, 11.5, 32.16170, 34.14700, 4.3690, 34.1470, 32.1617, 124.60, 2.9356, 1461.02, 113.10, 94.9, 9.45, 11.5, 52
2008/04/09, 00:24:32, 422.10, 0.00, -2.42, -1.80, 1012.5, 69.9248030, 30.3167420, , 285.50, 0.10, 101.20, 1013.28, 0.00, 0.0, 27.95, 70.51, 75.0, 357, 11.4, 32.16740, 34.14820, 4.3744, 34.1480, 32.1700, 122.50, 2.9343, 1461.02, 113.00, 96.4, 9.46, 11.5, 52
2008/04/09, 00:25:33, 443.00, 0.00, -2.70, -1.90, 1012.6, 69.9248470, 30.3167480, , 306.50, 0.34, 100.90, 1013.47, -0.10, 0.0, 27.95, 69.49, 74.5, 352, 10.6, 32.16830, 34.14970, 4.3738, 34.1497, 32.1683, 121.60, 2.9324, 1461.01, 114.50, 90.1, 9.35, 10.6, 52
2008/04/09, 00:26:33, 421.70, 0.00, -2.47, -1.90, 1012.5, 69.9248880, 30.3167920, , 24.70, 0.21, 101.20, 1013.34, 0.00, 0.0, 27.95, 70.59, 75.2, 354, 10.3, 32.16620, 34.14880, 4.3723, 34.1488, 32.1662, 124.00, 2.9304, 1461.00, 113.90, 92.5, 8.76, 10.3, 52
2008/04/09, 00:27:33, 420.90, 0.00, -2.59, -1.90, 1012.6, 69.9249200, 30.3168530, , 268.60, 0.14, 100.80, 1013.42, 0.10, 0.0, 27.95, 70.25, 74.2, 349, 9.8, 32.16100, 34.14800, 4.3672, 34.1480, 32.1610, 124.60, 2.9284, 1460.99, 115.90, 87.7, 9.78, 9.7, 52
2008/04/09, 00:28:33, 421.40, 0.00, -2.44, -1.80, 1012.6, 69.9249680, 30.3168230, , 49.70, 0.61, 101.30, 1013.45, 0.10, 0.0, 27.95, 70.69, 75.3, 350, 10.8, 32.15670, 34.14790, 4.3625, 34.1479, 32.1567, 124.90, 2.9276, 1460.99, 109.40, 89.4, 8.42, 10.7, 52
2008/04/09, 00:29:33, 442.20, 0.00, -2.47, -1.80, 1012.6, 69.9249780, 30.3168020, , 342.10, 0.20, 101.70, 1013.47, 0.20, 0.0, 27.95, 70.18, 75.4, 348, 9.7, 32.16050, 34.14770, 4.3669, 34.1477, 32.1605, 125.90, 2.9273, 1460.99, 112.60, 88.0, 9.06, 9.6, 52
2008/04/09, 00:30:33, 420.90, 0.00, -2.33, -1.70, 1012.5, 69.9249950, 30.3168720, , 11.90, 0.37, 100.90, 1013.43, 0.10, 0.0, 27.95, 71.38, 77.1, 350, 10.7, 32.16480, 34.14800, 4.3715, 34.1480, 32.1648, 126.40, 2.9279, 1460.99, 109.10, 88.8, 8.26, 10.6, 52
2008/04/09, 00:31:32, 421.10, 0.00, -2.36, -1.70, 1012.5, 69.9250330, 30.3168550, , 276.90, 0.35, 101.00, 1013.34, 0.40, 0.0, 27.95, 71.12, 75.5, 356, 11.1, 32.16650, 34.14740, 4.3740, 34.1474, 32.1665, 126.40, 2.9282, 1460.99, 115.00, 94.9, 8.70, 11.2, 52
2008/04/09, 00:32:33, 442.00, 0.00, -2.28, -1.70, 1012.5, 69.9250720, 30.3169250, , 70.70, 0.43, 101.30, 1013.31, 0.00, 0.0, 27.95, 70.84, 74.7, 349, 9.7, 32.16720, 34.14810, 4.3741, 34.1481, 32.1672, 126.40, 2.9285, 1460.99, 115.90, 87.1, 8.84, 9.5, 52
2008/04/09, 00:33:32, 429.30, 0.00, -2.39, -1.80, 1012.6, 69.9250920, 30.3169220, , 143.10, 0.28, 101.60, 1013.34, -0.10, 0.0, 27.95, 70.18, 75.1, 340, 11.1, 32.16590, 34.14750, 4.3732, 34.1475, 32.1659, 127.10, 2.9293, 1461.00, 111.60, 78.9, 9.84, 11.0, 52
2008/04/09, 00:34:32, 442.50, 0.00, -2.39, -1.80, 1012.7, 69.9250930, 30.3169150, , 163.80, 0.29, 101.70, 1013.51, 0.10, 0.0, 27.95, 70.25, 75.2, 351, 11.1, 32.16270, 34.14740, 4.3697, 34.1474, 32.1627, 129.20, 2.9317, 1461.01, 103.30, 89.8, 9.57, 11.3, 52
2008/04/09, 00:35:33, 421.70, 0.00, -2.33, -1.80, 1012.6, 69.9250980, 30.3169350, , 57.30, 0.32, 101.20, 1013.46, -0.20, 0.0, 27.95, 70.64, 74.7, 353, 10.8, 32.16220, 34.14800, 4.3685, 34.1480, 32.1622, 129.20, 2.9328, 1461.01, 109.50, 92.4, 8.70, 10.7, 52
2008/04/09, 00:36:33, 421.20, 0.00, -2.42, -1.80, 1012.6, 69.9251120, 30.3169220, , 302.50, 0.18, 101.60, 1013.44, -0.10, 0.0, 27.95, 71.02, 74.8, 343, 9.8, 32.16600, 34.14750, 4.3734, 34.1475, 32.1660, 128.30, 2.9320, 1461.01, 111.60, 82.7, 8.68, 9.7, 52
2008/04/09, 00:37:33, 421.20, 0.00, -2.42, -1.80, 1012.5, 69.9251280, 30.3169580, , 71.80, 0.38, 101.40, 1013.41, -0.20, 0.0, 27.95, 70.59, 74.5, 351, 9.6, 32.16980, 34.14850, 4.3766, 34.1485, 32.1698, 127.60, 2.9315, 1461.01, 111.30, 90.7, 8.78, 9.3, 52
2008/04/09, 00:38:33, 429.30, 0.00, -2.44, -1.80, 1012.4, 69.9251730, 30.3169630, , 35.30, 0.39, 101.60, 1013.41, -0.20, 0.0, 27.95, 70.31, 74.3, 352, 10.8, 32.16810, 34.14820, 4.3751, 34.1482, 32.1681, 127.60, 2.9313, 1461.01, 112.10, 92.1, 9.06, 10.8, 52
2008/04/09, 00:39:33, 421.00, 0.00, -2.53, -1.90, 1012.5, 69.9252130, 30.3169850, , 105.90, 0.29, 101.20, 1013.43, -0.10, 0.0, 27.95, 70.31, 74.7, 347, 10.2, 32.16720, 34.14880, 4.3735, 34.1488, 32.1672, 127.10, 2.9305, 1461.00, 115.80, 85.1, 9.90, 10.1, 52
2008/04/09, 00:40:33, 421.10, 0.00, -2.53, -1.90, 1012.4, 69.9252670, 30.3169880, , 35.30, 0.50, 102.10, 1013.43, -0.20, 0.0, 27.95, 70.28, 74.2, 355, 11.1, 32.16770, 34.14980, 4.3731, 34.1498, 32.1677, 126.80, 2.9311, 1461.01, 110.30, 95.6, 9.10, 10.9, 52
2008/04/09, 00:41:32, 421.70, 0.00, -2.70, -2.00, 1012.6, 69.9252980, 30.3170100, , 61.80, 0.49, 100.80, 1013.41, -0.50, 0.0, 27.95, 68.92, 73.3, 351, 9.2, 32.16650, 34.14960, 4.3720, 34.1496, 32.1665, 127.60, 2.9315, 1461.01, 119.50, 90.1, 9.51, 9.1, 52
2008/04/09, 00:42:32, 421.60, 0.00, -2.47, -2.00, 1012.6, 69.9253430, 30.3171000, , 15.90, 0.13, 101.30, 1013.33, -0.20, 0.0, 27.95, 70.05, 75.8, 350, 11.8, 32.17180, 34.15060, 4.3769, 34.1506, 32.1718, 125.20, 2.9322, 1461.01, 117.30, 89.1, 8.43, 11.7, 52
2008/04/09, 00:43:33, 421.50, 0.00, -2.50, -1.90, 1012.4, 69.9253900, 30.3170900, , 319.00, 0.41, 101.40, 1013.37, -0.10, 0.0, 27.95, 70.51, 75.1, 351, 10.3, 32.17030, 34.14970, 4.3761, 34.1497, 32.1703, 127.60, 2.9321, 1461.01, 111.70, 90.1, 8.98, 10.4, 52
2008/04/09, 00:44:33, 421.90, 0.00, -2.59, -1.90, 1012.6, 69.9254530, 30.3171450, , 26.40, 0.63, 101.20, 1013.32, -0.10, 0.0, 27.95, 69.84, 74.2, 359, 14.1, 32.16690, 34.14940, 4.3726, 34.1494, 32.1669, 127.60, 2.9315, 1461.01, 110.30, 97.9, 9.77, 14.0, 52
2008/04/09, 00:45:33, 421.60, 0.00, -2.64, -2.00, 1012.5, 69.9255220, 30.3171950, , 63.10, 0.58, 101.00, 1013.44, -0.30, 0.0, 27.95, 68.79, 72.6, 353, 11.1, 32.16480, 34.14930, 4.3702, 34.1493, 32.1648, 127.60, 2.9313, 1461.01, 119.40, 92.7, 9.85, 11.1, 52
2008/04/09, 00:46:33, 441.20, 0.00, -2.61, -2.00, 1012.4, 69.9255750, 30.3171320, , 7.90, 0.14, 101.60, 1013.47, 0.10, 0.0, 27.95, 68.66, 73.4, 347, 9.9, 32.16260, 34.15010, 4.3670, 34.1501, 32.1626, 128.60, 2.9308, 1461.01, 114.90, 86.7, 9.46, 9.9, 52
2008/04/09, 00:47:33, 440.90, 0.00, -2.44, -1.90, 1012.5, 69.9256180, 30.3171970, , 59.40, 0.48, 101.20, 1013.38, -0.10, 0.0, 27.95, 69.82, 74.3, 348, 10.9, 32.16170, 34.15020, 4.3659, 34.1502, 32.1617, 127.40, 2.9304, 1461.01, 107.90, 87.4, 8.84, 10.7, 52
2008/04/09, 00:48:33, 421.50, 0.00, -2.70, -2.00, 1012.5, 69.9256320, 30.3172380, , 207.60, 0.16, 100.80, 1013.36, 0.10, 0.0, 27.95, 69.33, 73.7, 337, 8.3, 32.16770, 34.15150, 4.3715, 34.1515, 32.1677, 128.90, 2.9306, 1461.01, 111.50, 76.2, 9.20, 8.3, 52
2008/04/09, 00:49:33, 421.60, 0.00, -2.47, -1.90, 1012.6, 69.9256250, 30.3171570, , 352.50, 0.18, 101.20, 1013.40, -0.10, 0.0, 27.95, 70.02, 75.0, 352, 10.1, 32.16800, 34.15160, 4.3717, 34.1516, 32.1680, 126.40, 2.9304, 1461.01, 106.10, 91.7, 8.36, 10.2, 52
2008/04/09, 00:50:32, 421.90, 0.00, -2.59, -1.90, 1012.7, 69.9256120, 30.3171470, , 81.60, 0.22, 100.60, 1013.48, 0.00, 0.0, 27.95, 69.49, 73.8, 346, 11.0, 32.16670, 34.15090, 4.3709, 34.1505, 32.1671, 128.60, 2.9302, 1461.01, 105.50, 84.3, 8.81, 11.1, 52
2008/04/09, 00:51:33, 422.10, 0.00, -2.53, -1.90, 1012.5, 69.9256100, 30.3171680, , 207.00, 0.24, 100.80, 1013.35, 0.00, 0.0, 27.95, 69.49, 74.2, 356, 8.4, 32.16180, 34.14940, 4.3668, 34.1494, 32.1618, 130.10, 2.9305, 1461.01, 102.10, 94.0, 8.38, 8.6, 52
2008/04/09, 00:52:33, 429.80, 0.00, -2.33, -1.70, 1012.4, 69.9256330, 30.3171770, , 47.70, 0.23, 101.60, 1013.58, 0.20, 0.0, 27.95, 70.43, 75.5, 352, 10.5, 32.16340, 34.15000, 4.3680, 34.1500, 32.1634, 129.20, 2.9302, 1461.00, 115.00, 91.8, 7.79, 10.3, 52
2008/04/09, 00:53:33, 441.10, 0.00, -2.39, -1.70, 1012.4, 69.9256800, 30.3171870, , 354.30, 0.33, 102.30, 1013.35, 0.10, 0.0, 27.95, 69.74, 74.6, 348, 10.2, 32.16340, 34.15020, 4.3679, 34.1502, 32.1634, 129.80, 2.9304, 1461.00, 117.70, 88.5, 9.36, 10.4, 52
2008/04/09, 00:54:32, 439.60, 0.00, -2.50, -1.70, 1012.5, 69.9256970, 30.3172820, , 53.70, 0.21, 100.80, 1013.38, 0.10, 0.0, 27.95, 68.95, 74.2, 346, 10.5, 32.16500, 34.14980, 4.3700, 34.1498, 32.1650, 131.00, 2.9290, 1461.00, 110.30, 84.5, 9.76, 10.3, 52
2008/04/09, 00:55:32, 423.40, 0.00, -2.44, -1.80, 1012.6, 69.9257220, 30.3172750, , 85.40, 0.51, 101.10, 1013.37, 0.00, 0.0, 27.95, 68.56, 73.5, 353, 11.3, 32.17230, 34.15000, 4.3781, 34.1500, 32.1723, 130.40, 2.9276, 1460.99, 100.50, 92.1, 9.11, 11.2, 52
2008/04/09, 00:56:33, 421.60, 0.00, -2.39, -1.70, 1012.5, 69.9257620, 30.3172800, , 15.90, 0.07, 101.20, 1013.31, -0.10, 0.0, 27.95, 69.54, 73.5, 358, 12.5, 32.16600, 34.15040, 4.3706, 34.1504, 32.1660, 129.80, 2.9265, 1460.99, 116.40, 96.9, 8.75, 12.5, 52
2008/04/09, 00:57:33, 442.80, 0.00, -2.42, -1.80, 1012.2, 69.9258050, 30.3172720, , 342.40, 0.20, 100.50, 1013.27, -0.20, 0.0, 27.95, 69.67, 74.1, 354, 10.6, 32.16620, 34.15060, 4.3706, 34.1506, 32.1662, 129.20, 2.9256, 1460.99, 116.30, 93.1, 9.44, 10.8, 52
2008/04/09, 00:58:32, 438.60, 0.00, -2.47, -1.80, 1012.4, 69.9258450, 30.3173820, , 136.90, 0.16, 101.30, 1013.14, -0.10, 0.0, 27.95, 68.69, 72.6, 346, 9.7, 32.16650, 34.15150, 4.3701, 34.1515, 32.1665, 129.80, 2.9236, 1460.98, 115.10, 85.5, 10.48, 9.9, 52
2008/04/09, 00:59:33, 421.60, 0.00, -2.42, -1.80, 1012.4, 69.9258770, 30.3173470, , 4.70, 0.29, 101.40, 1013.16, 0.10, 0.0, 27.95, 68.20, 73.4, 354, 13.5, 32.16840, 34.15140, 4.3723, 34.1514, 32.1684, 127.60, 2.9209, 1460.97, 111.50, 92.8, 9.94, 13.7, 52
2008/04/09, 01:00:33, 421.70, 0.00, -2.47, -1.80, 1012.4, 69.9259080, 30.3174020, , 359.40, 0.38, 100.90, 1013.35, 0.00, 0.0, 27.95, 66.63, 71.0, 358, 10.6, 32.16920, 34.15140, 4.3733, 34.1514, 32.1692, 131.00, 2.9181, 1460.95, 110.60, 97.2, 11.37, 10.6, 52
2008/04/09, 01:01:33, 421.60, 0.00, -2.33, -1.80, 1012.4, 69.9259650, 30.3173820, , 3.10, 0.14, 101.80, 1013.30, 0.00, 0.0, 27.95, 66.99, 71.9, 351, 10.5, 32.16480, 34.15120, 4.3684, 34.1512, 32.1648, 132.30, 2.9159, 1460.94, 115.90, 91.1, 10.20, 10.5, 52
2008/04/09, 01:02:33, 421.60, 0.00, -2.47, -1.80, 1012.4, 69.9260070, 30.3174500, , 28.90, 0.27, 100.10, 1013.28, 0.10, 0.0, 27.95, 65.95, 70.5, 359, 11.6, 32.16150, 34.15110, 4.3649, 34.1511, 32.1615, 132.50, 2.9180, 1460.95, 113.70, 97.1, 9.56, 11.7, 52
2008/04/09, 01:03:32, 421.50, 0.00, -2.42, -1.80, 1012.4, 69.9260780, 30.3174950, , 0.00, 0.26, 101.80, 1013.17, -0.10, 0.0, 27.95, 67.58, 72.0, 355, 10.8, 32.16360, 34.15090, 4.3674, 34.1509, 32.1636, 132.30, 2.9226, 1460.97, 118.10, 95.5, 9.58, 10.7, 52
2008/04/09, 01:04:33, 421.80, 0.00, -2.39, -1.80, 1012.5, 69.9261400, 30.3175470, , 272.00, 0.21, 101.60, 1013.39, 0.00, 0.0, 27.95, 67.38, 72.1, 348, 10.0, 32.16200, 34.15130, 4.3652, 34.1513, 32.1620, 132.50, 2.9247, 1460.98, 116.80, 87.7, 9.86, 10.0, 52
2008/04/09, 01:05:33, 421.90, 0.00, -2.47, -1.70, 1012.6, 69.9261520, 30.3175130, , 132.30, 0.36, 101.70, 1013.54, 0.10, 0.0, 27.95, 67.04, 71.7, 353, 11.0, 32.15520, 34.15010, 4.3587, 34.1501, 32.1552, 135.90, 2.9231, 1460.97, 104.90, 92.7, 8.79, 11.0, 52
2008/04/09, 01:06:32, 421.50, 0.00, -2.36, -1.70, 1012.4, 69.9261380, 30.3175000, , 195.80, 0.15, 100.80, 1013.32, 0.00, 0.0, 27.95, 66.44, 70.5, 347, 8.5, 32.15300, 34.14960, 4.3566, 34.1496, 32.1530, 138.40, 2.9205, 1460.96, 111.50, 85.3, 8.39, 8.6, 52
2008/04/09, 01:07:33, 422.20, 0.00, -2.42, -1.70, 1012.5, 69.9261350, 30.3175050, , 263.60, 0.26, 101.50, 1013.45, -0.20, 0.0, 27.95, 67.01, 71.3, 343, 10.2, 32.14990, 34.14980, 4.3528, 34.1498, 32.1499, 139.20, 2.9181, 1460.95, 110.40, 81.8, 8.36, 10.2, 52
2008/04/09, 01:08:33, 443.40, 0.00, -2.36, -1.70, 1012.4, 69.9261170, 30.3174800, , 315.00, 0.12, 100.70, 1013.30, -0.10, 0.0, 27.95, 67.92, 72.3, 343, 10.5, 32.14380, 34.14880, 4.3470, 34.1488, 32.1438, 140.20, 2.9158, 1460.94, 103.50, 81.1, 8.01, 10.4, 52
2008/04/09, 01:09:33, 421.90, 0.00, -2.47, -1.70, 1012.5, 69.9260830, 30.3175280, , 268.80, 0.09, 101.20, 1013.39, -0.10, 0.0, 27.95, 67.79, 71.6, 340, 11.5, 32.14820, 34.15190, 4.3489, 34.1519, 32.1482, 138.00, 2.9146, 1460.94, 102.60, 78.5, 9.14, 11.5, 52
2008/04/09, 01:10:33, 440.20, 0.00, -2.42, -1.80, 1012.5, 69.9260450, 30.3174600, , 187.90, 0.17, 100.90, 1013.39, -0.10, 0.0, 27.95, 66.63, 70.8, 338, 7.4, 32.16970, 34.15530, 4.3700, 34.1553, 32.1697, 127.40, 2.9152, 1460.95, 94.90, 75.9, 8.74, 7.5, 52
2008/04/09, 01:11:33, 421.70, 0.00, -2.17, -1.70, 1012.5, 69.9260330, 30.3174570, , 319.50, 0.19, 101.60, 1013.35, -0.10, 0.0, 27.95, 68.59, 72.9, 347, 10.3, 32.16950, 34.15340, 4.3717, 34.1534, 32.1695, 132.30, 2.9168, 1460.95, 96.90, 86.3, 7.79, 10.3, 52
2008/04/09, 01:12:33, 442.40, 0.00, -2.22, -1.60, 1012.4, 69.9260420, 30.3174270, , 78.50, 0.21, 101.80, 1013.35, 0.20, 0.0, 27.95, 68.61, 73.0, 350, 10.5, 32.16030, 34.15030, 4.3643, 34.1503, 32.1603, 139.60, 2.9189, 1460.96, 111.80, 89.3, 8.58, 10.4, 52
2008/04/09, 01:13:33, 440.30, 0.00, -2.22, -1.60, 1012.5, 69.9260450, 30.3174530, , 302.00, 0.50, 101.50, 1013.36, 0.20, 0.0, 27.95, 68.82, 73.6, 349, 9.6, 32.15350, 34.14890, 4.3578, 34.1489, 32.1535, 141.70, 2.9214, 1460.97, 112.80, 88.2, 8.89, 9.7, 52
2008/04/09, 01:14:33, 421.60, 0.00, -2.14, -1.50, 1012.4, 69.9260770, 30.3174750, , 324.50, 0.31, 102.30, 1013.25, 0.20, 0.0, 27.95, 69.56, 73.5, 351, 10.0, 32.15430, 34.14950, 4.3582, 34.1495, 32.1543, 141.10, 2.9250, 1460.98, 113.70, 91.5, 8.04, 9.8, 52
2008/04/09, 01:15:32, 423.20, 0.00, -2.19, -1.50, 1012.3, 69.9261070, 30.3174750, , 292.60, 0.67, 101.50, 1013.23, 0.00, 0.0, 27.95, 68.28, 72.2, 354, 10.8, 32.15280, 34.14980, 4.3562, 34.1498, 32.1528, 141.40, 2.9286, 1461.00, 114.80, 93.4, 8.62, 11.1, 52
2008/04/09, 01:16:33, 421.60, 0.00, -2.22, -1.60, 1012.4, 69.9261470, 30.3175200, , 70.10, 0.53, 101.20, 1013.19, -0.10, 0.0, 27.95, 68.64, 72.7, 2, 12.7, 32.14880, 34.14850, 4.3529, 34.1485, 32.1488, 144.10, 2.9339, 1461.02, 113.50, 100.9, 9.17, 12.6, 52
2008/04/09, 01:17:33, 421.90, 0.00, -2.42, -1.70, 1012.2, 69.9262180, 30.3175620, , 348.60, 0.41, 101.30, 1013.29, -0.20, 0.0, 27.95, 67.94, 71.9, 352, 11.2, 32.15850, 34.15060, 4.3620, 34.1506, 32.1585, 139.60, 2.9377, 1461.04, 119.30, 91.8, 9.78, 11.3, 52
2008/04/09, 01:18:32, 429.50, 0.00, -2.25, -1.70, 1012.5, 69.9262770, 30.3175270, , 166.80, 0.32, 100.90, 1013.21, -0.40, 0.0, 27.95, 68.51, 73.0, 344, 9.7, 32.16100, 34.15150, 4.3639, 34.1515, 32.1610, 137.70, 2.9413, 1461.05, 114.60, 82.0, 9.80, 9.7, 52
2008/04/09, 01:19:33, 430.60, 0.00, -2.17, -1.70, 1012.3, 69.9262930, 30.3175850, , 327.90, 0.21, 101.80, 1013.34, 0.10, 0.0, 27.95, 69.38, 73.3, 350, 10.7, 32.16790, 34.15200, 4.3712, 34.1520, 32.1679, 136.50, 2.9440, 1461.07, 108.20, 89.7, 9.12, 10.8, 52
2008/04/09, 01:20:33, 421.50, 0.00, -2.33, -1.70, 1012.3, 69.9262980, 30.3176000, , 94.30, 0.50, 100.90, 1013.15, -0.10, 0.0, 27.95, 68.89, 73.6, 354, 11.1, 32.17610, 34.15280, 4.3798, 34.1528, 32.1761, 136.80, 2.9478, 1461.08, 104.80, 92.5, 8.94, 10.9, 52
2008/04/09, 01:21:32, 421.90, 0.00, -2.17, -1.60, 1012.3, 69.9263280, 30.3176050, , 355.50, 0.35, 101.40, 1013.21, 0.20, 0.0, 27.95, 70.02, 74.4, 358, 12.0, 32.17590, 34.15330, 4.3791, 34.1533, 32.1759, 134.10, 2.9503, 1461.09, 118.60, 97.4, 9.50, 12.0, 52
2008/04/09, 01:22:33, 439.70, 0.00, -2.31, -1.70, 1012.2, 69.9263650, 30.3177130, , 24.40, 0.23, 101.20, 1013.15, -0.10, 0.0, 27.95, 68.82, 72.8, 352, 10.1, 32.18510, 34.15550, 4.3874, 34.1555, 32.1851, 131.30, 2.9532, 1461.11, 121.20, 91.2, 9.37, 10.1, 52
2008/04/09, 01:23:33, 423.00, 0.00, -2.19, -1.60, 1012.5, 69.9264000, 30.3177000, , 18.20, 0.19, 101.60, 1013.23, 0.00, 0.0, 27.95, 70.15, 75.0, 344, 7.6, 32.18920, 34.15570, 4.3918, 34.1557, 32.1892, 130.10, 2.9549, 1461.12, 113.80, 84.6, 9.08, 7.8, 52
2008/04/09, 01:24:33, 422.30, 0.00, -2.28, -1.60, 1012.4, 69.9264250, 30.3176830, , 82.10, 0.42, 100.30, 1013.36, 0.00, 0.0, 27.95, 68.72, 72.5, 355, 11.7, 32.19000, 34.15580, 4.3926, 34.1558, 32.1900, 130.10, 2.9569, 1461.13, 107.20, 93.3, 8.09, 11.6, 52
2008/04/09, 01:25:32, 422.10, 0.00, -2.36, -1.70, 1012.4, 69.9264770, 30.3177280, , 63.60, 0.32, 101.70, 1013.19, -0.30, 0.0, 27.95, 67.74, 71.9, 350, 10.1, 32.19000, 34.15570, 4.3927, 34.1557, 32.1900, 131.30, 2.9600, 1461.14, 116.10, 89.5, 9.07, 10.0, 52
2008/04/09, 01:26:32, 430.70, 0.00, -2.47, -1.80, 1012.4, 69.9265200, 30.3177830, , 118.80, 0.31, 101.20, 1013.34, -0.40, 0.0, 27.95, 67.35, 71.2, 353, 11.2, 32.19320, 34.15550, 4.3965, 34.1555, 32.1932, 130.10, 2.9655, 1461.16, 114.80, 92.3, 9.73, 11.4, 52
2008/04/09, 01:27:33, 440.50, 0.00, -2.25, -1.80, 1012.4, 69.9265600, 30.3177770, , 106.20, 0.67, 102.20, 1013.37, 0.10, 0.0, 27.95, 68.95, 73.6, 348, 10.2, 32.19580, 34.15710, 4.3979, 34.1571, 32.1958, 128.00, 2.9713, 1461.19, 112.90, 88.4, 8.70, 9.8, 52
2008/04/09, 01:28:32, 429.90, 0.00, -2.33, -1.70, 1012.3, 69.9265700, 30.3177470, , 257.80, 0.28, 101.10, 1013.21, -0.10, 0.0, 27.95, 68.89, 72.8, 344, 10.7, 32.20060, 34.15700, 4.4035, 34.1570, 32.2006, 126.80, 2.9761, 1461.21, 111.10, 82.6, 8.41, 10.6, 52
2008/04/09, 01:29:33, 429.80, 0.00, -2.39, -1.70, 1012.4, 69.9265800, 30.3178050, , 323.30, 0.13, 100.60, 1013.09, 0.00, 0.0, 27.95, 67.84, 73.0, 355, 9.7, 32.20270, 34.15720, 4.4057, 34.1572, 32.2027, 127.40, 2.9778, 1461.22, 103.40, 93.8, 9.35, 9.7, 52
2008/04/09, 01:30:32, 421.60, 0.00, -2.53, -1.70, 1012.3, 69.9266150, 30.3177770, , 73.10, 0.46, 101.60, 1013.23, -0.10, 0.0, 27.95, 67.35, 71.4, 349, 10.3, 32.19990, 34.15660, 4.4030, 34.1566, 32.1999, 128.30, 2.9776, 1461.22, 112.10, 87.6, 9.00, 10.1, 52